Location: Arleux
(50.3632°N, 2.8721°E)
Time: 15:05:10
(UTC+00:00)

Cosmos 1655 Rocket - Pass Details

Date: 15 December 2019
Orbit: 970 x 1006 km, 83.0° (Epoch: 22 January)

Event Time Altitude Azimuth Distance (km) Brightness Sun altitude
Rises 05:31:11 0° 348° (NNW) 3,680 6.8 -19.6°
Reaches altitude 10° 05:33:43 10° 346° (NNW) 2,727 6.1 -19.2°
Maximum altitude 05:39:52 65° 266° (W) 1,062 3.9 -18.2°
Drops below altitude 10° 05:46:00 10° 186° (S) 2,712 6.4 -17.3°
Sets 05:48:31 0° 183° (S) 3,659 7.2 -16.9°
